[[{"header":{"parameterUnit":"m.s-1","parameterCategory":1,"la1":30.2991,"la2":30.254,"lo1":-89.0895,"lo2":-89.0444,"dy":0.0017,"dx":0.0017,"nx":28,"ny":28,"refTime":"2024-05-05T03:00:00:Z","depth":0,"parameterNumber":2,"parameterNumberName":"U-component_of_WINDS"},"data":[0,0,0,0,0,0,0,0,0,0,0,0,0,0,0,0,0,0,0,0,0,0,0,0,0,0,0,0,0,0,0,0,0,0,0,0,0,0,0,0,0,0,0,0,0,0,0,0,0,0,0,0,0,0,0,0,0,0,-0.5682,-0.5682,0,-0.567,-0.567,-0.5669,-0.5646,-0.5645,-0.5645,-0.5645,-0.5632,-0.5632,-0.5633,0,0,0,0,0,0,0,0,0,0,0,0,0,-0.5685,-0.5685,-0.5682,-0.5681,-0.5681,-0.567,-0.567,-0.5669,-0.5646,-0.5645,-0.5645,-0.5644,-0.5632,-0.5632,-0.5633,0,0,0,0,0,0,0,0,0,0,0,0,0,-0.568,-0.5685,-0.5682,-0.5668,-0.5667,-0.567,-0.567,-0.5669,-0.5646,-0.5645,-0.5645,-0.5644,-0.5632,-0.5632,-0.5633,-0.5647,0,0,-0.5633,-0.5633,0,0,0,0,0,0,0,0,-0.568,-0.568,-0.567,-0.5669,-0.5668,-0.5659,-0.5666,-0.5662,-0.5646,-0.5654,-0.5645,-0.5644,-0.5642,-0.5641,-0.564,-0.5647,-0.5646,-0.5633,-0.5633,-0.5633,-0.5633,0,0,0,0,0,0,0,-0.568,-0.568,-0.5677,-0.567,-0.5669,-0.5663,-0.5662,-0.5665,-0.5652,-0.5653,-0.5652,-0.565,-0.5641,-0.564,-0.564,-0.5646,-0.5633,-0.5633,-0.5633,-0.5633,-0.5666,-0.5667,0,0,0,0,0,0,-0.5683,-0.568,-0.5677,-0.5677,-0.5672,-0.5664,-0.5662,-0.5662,-0.5652,-0.5649,-0.5651,-0.5649,-0.564,-0.564,-0.5639,-0.5657,-0.5633,-0.5633,-0.5633,-0.5665,-0.5666,-0.5667,0,0,0,0,0,0,-0.5683,-0.5683,-0.5678,-0.5678,-0.5677,-0.5664,-0.5665,-0.5662,-0.5662,-0.565,-0.5648,-0.5653,-0.564,-0.5639,-0.5646,-0.5656,-0.5633,-0.5634,-0.5664,-0.5666,-0.5667,-0.5692,0,0,0,0,0,0,-0.5683,-0.5683,-0.5688,-0.5678,-0.5677,-0.5684,-0.5665,-0.5663,-0.5662,-0.566,-0.5651,-0.5649,-0.5639,-0.5646,-0.5646,-0.5656,-0.5634,-0.5663,-0.5665,-0.5666,-0.569,-0.5694,-0.5697,0,0,0,0,0,-0.5683,-0.5695,-0.5688,-0.5688,-0.5683,-0.5685,-0.5684,-0.5673,-0.5663,-0.5668,-0.5661,-0.5649,-0.5655,-0.5647,-0.5647,-0.5657,-0.5663,-0.5664,-0.5666,-0.5689,-0.5693,-0.5697,0,0,0,0,0,0,-0.5706,-0.5694,-0.5686,-0.5695,-0.5691,-0.5681,-0.5687,-0.5678,-0.5676,-0.5674,-0.566,-0.5658,-0.5667,-0.5663,-0.5654,-0.5672,-0.5657,-0.5659,-0.5674,-0.5678,-0.5682,-0.5683,-0.5634,0,0,0,0,0,-0.5713,-0.5715,-0.5704,-0.5713,-0.5712,-0.57,-0.57,-0.5692,-0.5687,-0.5685,-0.5679,-0.5675,-0.5676,-0.5677,-0.5677,-0.569,-0.5688,-0.5697,-0.57,-0.5703,-0.5705,-0.5712,-0.5717,-0.5673,-0.5673,-0.5673,0,0,-0.5725,-0.5719,-0.5721,-0.5718,-0.5714,-0.5717,-0.5699,-0.5702,-0.5705,-0.5686,-0.5692,-0.5687,-0.5682,-0.5692,-0.5697,-0.5689,-0.5717,-0.5705,-0.5708,-0.5708,-0.5715,-0.5719,-0.5723,-0.5674,-0.5674,-0.5674,0,0,-0.575,-0.5745,-0.5753,-0.575,-0.5744,-0.5736,-0.5738,-0.573,-0.5726,-0.5732,-0.5718,-0.5721,-0.5723,-0.572,-0.5719,-0.5745,-0.5734,-0.5745,-0.5763,-0.5771,-0.5774,-0.5777,-0.5788,-0.5791,-0.5747,-0.5747,-0.5747,0,-0.5767,-0.5771,-0.5758,-0.5763,-0.5763,-0.5746,-0.5754,-0.5752,-0.5747,-0.5747,-0.5738,-0.5741,-0.5736,-0.5746,-0.5753,-0.5752,-0.5755,-0.5746,-0.5775,-0.5778,-0.578,-0.579,-0.5794,-0.5749,-0.5748,-0.5748,-0.5748,0,-0.5792,-0.5795,-0.5802,-0.5798,-0.5798,-0.5805,-0.5794,-0.5796,-0.5787,-0.5781,-0.5788,-0.5782,-0.5782,-0.5783,-0.5775,-0.5792,-0.5788,-0.5777,-0.5763,-0.5786,-0.5795,-0.5798,-0.5751,-0.575,-0.575,-0.5749,0,0,-0.5831,-0.5821,-0.5823,-0.5822,-0.5815,-0.5818,-0.5824,-0.5823,-0.5826,-0.5823,-0.5829,-0.5831,-0.5822,-0.5821,-0.5812,-0.5819,-0.5841,-0.5807,-0.5807,-0.5815,-0.5861,-0.5869,-0.5874,-0.5834,-0.5834,-0.5835,-0.5862,0,-0.5855,-0.5865,-0.5855,-0.5867,-0.5871,-0.5855,-0.5861,-0.5858,-0.5852,-0.5855,-0.5848,-0.5851,-0.5838,-0.5837,-0.5843,-0.5837,-0.585,-0.5835,-0.5839,-0.584,-0.5842,-0.5878,-0.5887,-0.5912,-0.5865,-0.5865,-0.5866,0,-0.5884,-0.5884,-0.5897,-0.589,-0.5891,-0.5897,-0.5896,-0.5898,-0.5895,-0.589,-0.589,-0.588,-0.5886,-0.5872,-0.5881,-0.5871,-0.5872,-0.5869,-0.587,-0.5871,-0.5855,-0.588,-0.592,-0.5924,-0.5871,-0.587,-0.587,0,-0.5913,-0.5915,-0.5923,-0.5922,-0.5915,-0.5919,-0.5916,-0.5912,-0.5913,-0.5912,-0.5913,-0.5913,-0.5914,-0.5914,-0.5905,-0.5895,-0.5916,-0.59,-0.5913,-0.5913,-0.5918,-0.5918,-0.596,-0.5918,-0.5918,-0.5918,-0.5918,0,-0.5941,-0.595,-0.5936,-0.5941,-0.5951,-0.5939,-0.5949,-0.5945,-0.5941,-0.5946,-0.5933,-0.5937,-0.5924,-0.5928,-0.592,-0.593,-0.593,-0.5927,-0.5925,-0.5929,-0.5929,-0.593,-0.5928,-0.5919,-0.5919,-0.5919,-0.5918,0,-0.5975,-0.5965,-0.5974,-0.5966,-0.5965,-0.5972,-0.5966,-0.5971,-0.5965,-0.5971,-0.5972,-0.5962,-0.5966,-0.5956,-0.5958,-0.5953,-0.5967,-0.5962,-0.5969,-0.5967,-0.5981,-0.598,-0.6025,-0.6031,-0.5985,-0.5985,-0.5985,0,-0.5994,-0.6,-0.5994,-0.5996,-0.5994,-0.5997,-0.5998,-0.5987,-0.5989,-0.5986,-0.5991,-0.5994,-0.5995,-0.6002,-0.5995,-0.5997,-0.5992,-0.6008,-0.5993,-0.5996,-0.5994,-0.5994,-0.5995,-0.6011,-0.6012,-0.6012,-0.6013,0,-0.6029,-0.6024,-0.6026,-0.6027,-0.6029,-0.6029,-0.6028,-0.603,-0.6019,-0.6021,-0.6025,-0.6026,-0.6029,-0.6032,-0.6032,-0.603,-0.602,-0.6018,-0.6021,-0.6025,-0.6029,-0.6028,-0.5978,-0.6017,-0.6016,-0.6016,-0.6016,-0.6016,-0.6056,-0.6062,-0.6058,-0.6061,-0.606,-0.6059,-0.6064,-0.6059,-0.6062,-0.6063,-0.6056,-0.6062,-0.6059,-0.6059,-0.6057,-0.6062,-0.6055,-0.6059,-0.606,-0.6062,-0.6065,-0.6028,-0.6062,-0.6062,-0.6061,-0.6061,-0.6061,0,-0.6092,-0.6089,-0.6092,-0.6091,-0.6094,-0.6084,-0.6083,-0.6086,-0.6091,-0.6089,-0.6091,-0.6096,-0.6099,-0.6093,-0.6096,-0.6101,-0.6096,-0.6102,-0.6102,-0.6101,-0.607,-0.6068,-0.6105,-0.6105,-0.6105,-0.6105,-0.6105,-0.6105,-0.611,-0.612,-0.6115,-0.6124,-0.6121,-0.6126,-0.6127,-0.6127,-0.6126,-0.6132,-0.6134,-0.613,-0.6127,-0.613,-0.6133,-0.6131,-0.6133,-0.614,-0.6137,-0.6108,-0.6103,-0.6099,-0.6097,-0.614,-0.614,-0.6168,-0.6168,-0.6168]},{"header":{"parameterUnit":"m.s-1","parameterCategory":1,"la1":30.2991,"la2":30.254,"lo1":-89.0895,"lo2":-89.0444,"dy":0.0017,"dx":0.0017,"nx":28,"ny":28,"refTime":"2024-05-05T03:00:00:Z","depth":0,"parameterNumber":3,"parameterNumberName":"V-component_of_WINDS"},"data":[0,0,0,0,0,0,0,0,0,0,0,0,0,0,0,0,0,0,0,0,0,0,0,0,0,0,0,0,0,0,0,0,0,0,0,0,0,0,0,0,0,0,0,0,0,0,0,0,0,0,0,0,0,0,0,0,0,0,3.5327,3.5327,0,3.5295,3.5295,3.5294,3.5241,3.524,3.5239,3.5238,3.5205,3.5205,3.5205,0,0,0,0,0,0,0,0,0,0,0,0,0,3.5342,3.5342,3.5327,3.5327,3.5326,3.5295,3.5295,3.5294,3.5241,3.524,3.5239,3.5238,3.5205,3.5205,3.5205,0,0,0,0,0,0,0,0,0,0,0,0,0,3.5326,3.5342,3.5327,3.5296,3.5293,3.5295,3.5295,3.5294,3.5241,3.524,3.5238,3.5237,3.5205,3.5205,3.5205,3.5236,0,0,3.5206,3.5206,0,0,0,0,0,0,0,0,3.5327,3.5325,3.5301,3.5298,3.5295,3.527,3.5288,3.5274,3.5242,3.5261,3.5238,3.5236,3.5228,3.5226,3.5223,3.5234,3.5233,3.5206,3.5206,3.5206,3.5206,0,0,0,0,0,0,0,3.5328,3.5326,3.5314,3.5301,3.5297,3.5284,3.528,3.5285,3.5253,3.5259,3.5255,3.5252,3.5226,3.5224,3.5222,3.5232,3.5206,3.5206,3.5206,3.5206,3.5265,3.5267,0,0,0,0,0,0,3.5334,3.5328,3.5315,3.5313,3.5307,3.5285,3.528,3.528,3.5253,3.5248,3.5253,3.525,3.5224,3.5222,3.5221,3.5253,3.5206,3.5206,3.5206,3.5264,3.5265,3.5267,0,0,0,0,0,0,3.5334,3.5333,3.5317,3.5319,3.5316,3.5286,3.5286,3.528,3.5277,3.5249,3.5243,3.5257,3.5223,3.5221,3.5232,3.5252,3.5206,3.5206,3.5262,3.5264,3.5266,3.532,0,0,0,0,0,0,3.5335,3.5334,3.5344,3.532,3.5316,3.5328,3.5287,3.528,3.5277,3.5272,3.525,3.5245,3.5222,3.5232,3.5232,3.5251,3.5206,3.526,3.5263,3.5266,3.5316,3.5323,3.533,0,0,0,0,0,3.5336,3.5361,3.5345,3.5344,3.5329,3.533,3.5327,3.53,3.5279,3.529,3.5272,3.5246,3.525,3.5234,3.5233,3.5252,3.5258,3.5262,3.5265,3.5313,3.5322,3.533,0,0,0,0,0,0,3.5388,3.5357,3.5339,3.5358,3.5347,3.5321,3.5333,3.5311,3.5305,3.5301,3.5267,3.5263,3.5278,3.5267,3.5249,3.528,3.525,3.5254,3.5286,3.5295,3.5302,3.5303,3.5206,0,0,0,0,0,3.5402,3.5405,3.5378,3.5396,3.5392,3.5364,3.5363,3.5343,3.533,3.5325,3.5307,3.5296,3.5295,3.5295,3.5292,3.5315,3.5309,3.5328,3.5335,3.534,3.5343,3.5354,3.5361,3.5278,3.5278,3.5278,0,0,3.543,3.5414,3.5418,3.5406,3.5396,3.5399,3.536,3.5365,3.5367,3.5326,3.5335,3.5322,3.5307,3.5324,3.5331,3.5315,3.5365,3.5345,3.535,3.5349,3.5358,3.5366,3.5373,3.5281,3.528,3.528,0,0,3.5483,3.5472,3.5485,3.5476,3.546,3.5441,3.5445,3.5422,3.5412,3.5421,3.5389,3.5392,3.539,3.5381,3.5376,3.5426,3.5402,3.5427,3.5462,3.5473,3.5479,3.5485,3.5501,3.5508,3.543,3.543,3.543,0,3.552,3.5524,3.5495,3.5503,3.5498,3.5462,3.5475,3.5467,3.5451,3.5449,3.5432,3.5429,3.5417,3.5431,3.5443,3.5441,3.5443,3.5428,3.5481,3.5486,3.5491,3.5506,3.5513,3.5433,3.5433,3.5432,3.5432,0,3.557,3.5573,3.5586,3.5572,3.557,3.558,3.5553,3.5554,3.5535,3.5518,3.5527,3.5511,3.5504,3.5507,3.5488,3.5518,3.5508,3.5487,3.5456,3.5502,3.5516,3.5522,3.5437,3.5436,3.5435,3.5435,0,0,3.5653,3.5624,3.5629,3.5621,3.5602,3.5604,3.5613,3.5606,3.5607,3.5598,3.5604,3.5605,3.5584,3.5579,3.5559,3.5568,3.5608,3.5545,3.5544,3.5556,3.5639,3.5654,3.5661,3.5592,3.5593,3.5594,3.5639,0,3.5701,3.5714,3.5689,3.5708,3.571,3.5676,3.5684,3.5672,3.5658,3.5657,3.5641,3.5641,3.5615,3.5611,3.5619,3.5601,3.5624,3.5598,3.5597,3.5597,3.5599,3.5668,3.5684,3.5728,3.5645,3.5646,3.5646,0,3.5757,3.5751,3.577,3.5749,3.5749,3.5757,3.5749,3.5749,3.5736,3.5724,3.5719,3.5695,3.5702,3.5674,3.5683,3.5667,3.5665,3.5656,3.5657,3.5654,3.5623,3.5666,3.5741,3.5747,3.5655,3.5654,3.5654,0,3.5814,3.5811,3.5822,3.5817,3.5793,3.5799,3.579,3.5775,3.5773,3.5766,3.5764,3.5758,3.5755,3.5751,3.5726,3.5708,3.5738,3.5708,3.5727,3.5728,3.5734,3.5733,3.5807,3.5736,3.5736,3.5736,3.5736,0,3.5869,3.5882,3.5847,3.5853,3.5867,3.5838,3.5852,3.5839,3.5827,3.583,3.5801,3.5805,3.5773,3.5773,3.5755,3.5764,3.5763,3.5754,3.5748,3.5755,3.5756,3.5752,3.5748,3.5737,3.5737,3.5737,3.5736,0,3.5934,3.5911,3.5921,3.5898,3.5892,3.5903,3.5883,3.5888,3.5872,3.5877,3.5876,3.585,3.5849,3.5825,3.5819,3.5806,3.5823,3.5813,3.5827,3.5823,3.5844,3.5841,3.5916,3.5924,3.5849,3.585,3.5851,0,3.5969,3.5978,3.5956,3.5956,3.5948,3.5949,3.5946,3.5919,3.5918,3.5904,3.591,3.5907,3.5902,3.5902,3.5883,3.5878,3.5866,3.5893,3.5865,3.5872,3.5864,3.5863,3.5864,3.5898,3.5899,3.59,3.59,0,3.6034,3.6022,3.602,3.6013,3.6011,3.6005,3.5997,3.5999,3.5969,3.5969,3.5967,3.5964,3.5958,3.5954,3.5946,3.5936,3.5913,3.591,3.5914,3.592,3.5927,3.5922,3.5841,3.5907,3.5907,3.5906,3.5906,3.5906,3.6083,3.609,3.6075,3.6073,3.6065,3.6058,3.6061,3.6046,3.6044,3.6036,3.6021,3.6022,3.6008,3.5995,3.5987,3.5987,3.5973,3.5979,3.598,3.5982,3.5985,3.5929,3.5985,3.5985,3.5985,3.5985,3.5985,0,3.6145,3.6134,3.6133,3.6123,3.6121,3.6101,3.6091,3.6091,3.6092,3.6082,3.6078,3.6076,3.6073,3.6054,3.6048,3.6052,3.6041,3.6051,3.605,3.6048,3.5999,3.5995,3.606,3.606,3.606,3.606,3.606,3.606,3.6177,3.6186,3.6173,3.6177,3.6166,3.6167,3.6163,3.6156,3.6148,3.6147,3.6144,3.6132,3.6118,3.6111,3.6107,3.6102,3.61,3.6113,3.6104,3.6058,3.6051,3.6044,3.604,3.6114,3.6114,3.6153,3.6153,3.6154]}]]